| time (UTC) | temp F | wind direction | speed MPH | gust MPH | rain 1hr in | rain 24hr in | rain mn in | humidity % | barometer mb |
| 20260504201446 | 80 | 210 | 2.0 | 6.0 | 0.00 | 0.00 | 0.00 | 42 | |
| 20260504200944 | 80 | 185 | 1.0 | 3.0 | 0.00 | 0.00 | 0.00 | 39 | |
| 20260504200441 | 78 | 176 | 3.0 | 5.0 | 0.00 | 0.00 | 0.00 | 41 | |
| 20260504195937 | 80 | 193 | 3.0 | 5.0 | 0.00 | 0.00 | 0.00 | 41 | |
| 20260504195433 | 79 | 171 | 2.0 | 5.0 | 0.00 | 0.00 | 0.00 | 40 | |
| 20260504194930 | 78 | 206 | 1.0 | 5.0 | 0.00 | 0.00 | 0.00 | 44 | |
| 20260504194426 | 79 | 191 | 2.0 | 3.0 | 0.00 | 0.00 | 0.00 | 41 | |
| 20260504193922 | 80 | 204 | 2.0 | 5.0 | 0.00 | 0.00 | 0.00 | 41 | |
| 20260504193419 | 79 | 176 | 4.0 | 5.0 | 0.00 | 0.00 | 0.00 | 41 | |
| 20260504192918 | 79 | 168 | 2.0 | 5.0 | 0.00 | 0.00 | 0.00 | 41 | |
| 20260504192415 | 77 | 164 | 3.0 | 6.0 | 0.00 | 0.00 | 0.00 | 44 | |
| 20260504191914 | 76 | 231 | 3.0 | 6.0 | 0.00 | 0.00 | 0.00 | 43 | |
| 20260504191411 | 76 | 193 | 2.0 | 5.0 | 0.00 | 0.00 | 0.00 | 44 | |
| 20260504190906 | 76 | 171 | 4.0 | 6.0 | 0.00 | 0.00 | 0.00 | 44 | |
| 20260504190402 | 75 | 174 | 0.0 | 5.0 | 0.00 | 0.00 | 0.00 | 45 | |
| 20260504185859 | 76 | 174 | 4.0 | 7.0 | 0.00 | 0.00 | 0.00 | 44 | |
| 20260504185356 | 75 | 201 | 2.0 | 5.0 | 0.00 | 0.00 | 0.00 | 46 | |
| 20260504184852 | 78 | 174 | 3.0 | 5.0 | 0.00 | 0.00 | 0.00 | 43 | |
| 20260504184348 | 76 | 163 | 3.0 | 5.0 | 0.00 | 0.00 | 0.00 | 46 | |
| 20260504183844 | 77 | 238 | 2.0 | 5.0 | 0.00 | 0.00 | 0.00 | 46 | |
| 20260504183342 | 76 | 160 | 0.0 | 2.0 | 0.00 | 0.00 | 0.00 | 47 | |
| 20260504182839 | 77 | 171 | 3.0 | 5.0 | 0.00 | 0.00 | 0.00 | 45 | |
| 20260504182337 | 76 | 175 | 2.0 | 3.0 | 0.00 | 0.00 | 0.00 | 46 | |
| 20260504181833 | 77 | 176 | 3.0 | 3.0 | 0.00 | 0.00 | 0.00 | 45 | |
| 20260504181331 | 78 | 163 | 1.0 | 5.0 | 0.00 | 0.00 | 0.00 | 45 | |
| 20260504180830 | 79 | 96 | 2.0 | 2.0 | 0.00 | 0.00 | 0.00 | 45 | |
| 20260504180328 | 79 | 214 | 0.0 | 2.0 | 0.00 | 0.00 | 0.00 | 42 | |
| 20260504175826 | 79 | 128 | 0.0 | 0.0 | 0.00 | 0.00 | 0.00 | 44 | |
| 20260504175322 | 78 | 227 | 1.0 | 1.0 | 0.00 | 0.00 | 0.00 | 45 | |
| 20260504174820 | 75 | 167 | 0.0 | 2.0 | 0.00 | 0.00 | 0.00 | 44 | |
| 20260504174317 | 76 | 177 | 1.0 | 2.0 | 0.00 | 0.00 | 0.00 | 46 | |
| 20260504173814 | 76 | 314 | 2.0 | 3.0 | 0.00 | 0.00 | 0.00 | 46 | |
| 20260504173311 | 76 | 117 | 0.0 | 5.0 | 0.00 | 0.00 | 0.00 | 47 | |
| 20260504172808 | 77 | 49 | 1.0 | 1.0 | 0.00 | 0.00 | 0.00 | 45 | |
| 20260504172305 | 75 | 158 | 1.0 | 2.0 | 0.00 | 0.00 | 0.00 | 50 | |
| 20260504171800 | 75 | 133 | 0.0 | 0.0 | 0.00 | 0.00 | 0.00 | 53 | |
| 20260504171258 | 75 | 335 | 2.0 | 2.0 | 0.00 | 0.00 | 0.00 | 54 | |
| 20260504170755 | 74 | 215 | 1.0 | 1.0 | 0.00 | 0.00 | 0.00 | 55 | |
| 20260504170252 | 75 | 32 | 3.0 | 3.0 | 0.00 | 0.00 | 0.00 | 47 | |
| 20260504160210 | 69 | 151 | 2.0 | 2.0 | 0.00 | 0.00 | 0.00 | 61 | |
| 20260504151138 | 65 | 151 | 0.0 | 1.0 | 0.00 | 0.00 | 0.00 | 68 | |
| 20260504150636 | 64 | 164 | 0.0 | 1.0 | 0.00 | 0.00 | 0.00 | 70 | |
| 20260504150132 | 63 | 150 | 1.0 | 2.0 | 0.00 | 0.00 | 0.00 | 72 | |
| 20260504141101 | 53 | 174 | 0.0 | 0.0 | 0.00 | 0.00 | 0.00 | 93 | |
| 20260504140557 | 52 | 180 | 0.0 | 0.0 | 0.00 | 0.00 | 0.00 | 93 | |
| 20260504130521 | 51 | 162 | 0.0 | 0.0 | 0.00 | 0.00 | 0.00 | 95 | |
| 20260504110409 | 53 | 169 | 0.0 | 0.0 | 0.00 | 0.00 | 0.00 | 93 | |
| 20260504100326 | 53 | 220 | 0.0 | 0.0 | 0.00 | 0.00 | 0.00 | 92 | |
| 20260504081720 | 54 | 219 | 0.0 | 0.0 | 0.00 | 0.00 | 0.00 | 88 | |
| 20260504081216 | 54 | 179 | 0.0 | 0.0 | 0.00 | 0.00 | 0.00 | 87 | |
| 20260504080712 | 54 | 182 | 0.0 | 0.0 | 0.00 | 0.00 | 0.00 | 87 | |
| 20260504080209 | 54 | 179 | 0.0 | 0.0 | 0.00 | 0.00 | 0.00 | 87 | |
| 20260504070137 | 56 | 186 | 0.0 | 0.0 | 0.00 | 0.00 | 0.00 | 84 | |
| 20260504050525 | 59 | 176 | 0.0 | 1.0 | 0.00 | 0.00 | 0.00 | 77 | |
| 20260504050022 | 60 | 189 | 0.0 | 1.0 | 0.00 | 0.00 | 0.00 | 76 | |
| 20260504045519 | 60 | 183 | 0.0 | 1.0 | 0.00 | 0.00 | 0.00 | 75 | |
| 20260504045014 | 60 | 194 | 1.0 | 1.0 | 0.00 | 0.00 | 0.00 | 74 | |
| 20260504044512 | 61 | 194 | 0.0 | 1.0 | 0.00 | 0.00 | 0.00 | 73 | |
| 20260504044009 | 61 | 190 | 0.0 | 0.0 | 0.00 | 0.00 | 0.00 | 73 | |
| 20260504043506 | 62 | 178 | 0.0 | 0.0 | 0.00 | 0.00 | 0.00 | 71 | |
| 20260504043004 | 62 | 178 | 0.0 | 0.0 | 0.00 | 0.00 | 0.00 | 70 | |
| 20260504042500 | 62 | 173 | 0.0 | 0.0 | 0.00 | 0.00 | 0.00 | 70 | |
| 20260504041957 | 62 | 172 | 0.0 | 0.0 | 0.00 | 0.00 | 0.00 | 70 | |
| 20260504041453 | 63 | 195 | 0.0 | 0.0 | 0.00 | 0.00 | 0.00 | 70 | |
| 20260504040949 | 63 | 176 | 0.0 | 0.0 | 0.00 | 0.00 | 0.00 | 70 | |
| 20260504040447 | 64 | 188 | 0.0 | 0.0 | 0.00 | 0.00 | 0.00 | 70 | |
| 20260504035943 | 64 | 179 | 0.0 | 0.0 | 0.00 | 0.00 | 0.00 | 68 | |
| 20260504035440 | 65 | 176 | 0.0 | 0.0 | 0.00 | 0.00 | 0.00 | 68 | |
| 20260504034937 | 65 | 174 | 0.0 | 0.0 | 0.00 | 0.00 | 0.00 | 68 | |
| 20260504034434 | 65 | 175 | 0.0 | 0.0 | 0.00 | 0.00 | 0.00 | 68 | |
| 20260504033931 | 66 | 194 | 0.0 | 0.0 | 0.00 | 0.00 | 0.00 | 66 | |
| 20260504033429 | 66 | 178 | 0.0 | 1.0 | 0.00 | 0.00 | 0.00 | 63 | |
| 20260504032926 | 67 | 194 | 1.0 | 1.0 | 0.00 | 0.00 | 0.00 | 63 | |
| 20260504032423 | 69 | 170 | 0.0 | 1.0 | 0.00 | 0.00 | 0.00 | 61 | |
| 20260504031919 | 70 | 170 | 0.0 | 0.0 | 0.00 | 0.00 | 0.00 | 56 | |
| 20260504031417 | 70 | 175 | 0.0 | 0.0 | 0.00 | 0.00 | 0.00 | 54 | |
| 20260504030913 | 71 | 168 | 0.0 | 0.0 | 0.00 | 0.00 | 0.00 | 52 | |
| 20260504030410 | 71 | 159 | 0.0 | 0.0 | 0.00 | 0.00 | 0.00 | 50 | |
| 20260504025906 | 71 | 165 | 0.0 | 0.0 | 0.00 | 0.00 | 0.00 | 50 | |
| 20260504025403 | 72 | 164 | 0.0 | 1.0 | 0.00 | 0.00 | 0.00 | 49 | |
| 20260504024900 | 72 | 182 | 0.0 | 2.0 | 0.00 | 0.00 | 0.00 | 48 | |
| 20260504024356 | 72 | 152 | 0.0 | 1.0 | 0.00 | 0.00 | 0.00 | 49 | |
| 20260504023854 | 72 | 151 | 1.0 | 1.0 | 0.00 | 0.00 | 0.00 | 48 | |
| 20260504023350 | 72 | 172 | 0.0 | 3.0 | 0.00 | 0.00 | 0.00 | 48 | |
| 20260504022845 | 73 | 200 | 1.0 | 2.0 | 0.00 | 0.00 | 0.00 | 48 | |
| 20260504022343 | 73 | 119 | 3.0 | 3.0 | 0.00 | 0.00 | 0.00 | 48 | |
| 20260504021839 | 74 | 143 | 0.0 | 2.0 | 0.00 | 0.00 | 0.00 | 49 | |
| 20260504021337 | 75 | 216 | 1.0 | 2.0 | 0.00 | 0.00 | 0.00 | 47 | |
| 20260504020833 | 76 | 174 | 0.0 | 1.0 | 0.00 | 0.00 | 0.00 | 47 | |
| 20260504020330 | 75 | 173 | 0.0 | 3.0 | 0.00 | 0.00 | 0.00 | 47 | |
| 20260504015826 | 75 | 210 | 1.0 | 3.0 | 0.00 | 0.00 | 0.00 | 47 | |
| 20260504015322 | 76 | 168 | 2.0 | 5.0 | 0.00 | 0.00 | 0.00 | 47 | |
| 20260504014819 | 77 | 168 | 3.0 | 6.0 | 0.00 | 0.00 | 0.00 | 46 | |
| 20260504014315 | 78 | 145 | 3.0 | 5.0 | 0.00 | 0.00 | 0.00 | 44 | |
| 20260504013813 | 80 | 200 | 1.0 | 3.0 | 0.00 | 0.00 | 0.00 | 40 | |
| 20260504013310 | 80 | 147 | 0.0 | 0.0 | 0.00 | 0.00 | 0.00 | 36 | |
| 20260504012807 | 80 | 164 | 0.0 | 1.0 | 0.00 | 0.00 | 0.00 | 37 | |
| 20260504012305 | 80 | 174 | 0.0 | 1.0 | 0.00 | 0.00 | 0.00 | 37 | |
| 20260504011802 | 80 | 150 | 1.0 | 1.0 | 0.00 | 0.00 | 0.00 | 38 | |
| 20260504011258 | 81 | 187 | 0.0 | 1.0 | 0.00 | 0.00 | 0.00 | 37 | |
| 20260504010754 | 82 | 202 | 0.0 | 2.0 | 0.00 | 0.00 | 0.00 | 35 | |
| 20260504010250 | 82 | 156 | 0.0 | 2.0 | 0.00 | 0.00 | 0.00 | 34 | |
| 20260504005747 | 84 | 168 | 1.0 | 2.0 | 0.00 | 0.00 | 0.00 | 36 | |
| 20260504005244 | 82 | 113 | 0.0 | 2.0 | 0.00 | 0.00 | 0.00 | 35 | |
| 20260504004741 | 83 | 183 | 0.0 | 2.0 | 0.00 | 0.00 | 0.00 | 35 | |
| 20260504004238 | 81 | 134 | 2.0 | 2.0 | 0.00 | 0.00 | 0.00 | 36 | |
| 20260504003735 | 80 | 278 | 1.0 | 2.0 | 0.00 | 0.00 | 0.00 | 38 | |
| 20260504003232 | 80 | 53 | 2.0 | 3.0 | 0.00 | 0.00 | 0.00 | 37 | |
| 20260504002728 | 82 | 19 | 1.0 | 6.0 | 0.00 | 0.00 | 0.00 | 37 | |
| 20260504002225 | 81 | 287 | 1.0 | 2.0 | 0.00 | 0.00 | 0.00 | 37 | |
| 20260504001723 | 83 | 172 | 0.0 | 2.0 | 0.00 | 0.00 | 0.00 | 36 | |
| 20260504001220 | 85 | 107 | 1.0 | 2.0 | 0.00 | 0.00 | 0.00 | 34 | |
| 20260504000717 | 84 | 142 | 0.0 | 0.0 | 0.00 | 0.00 | 0.00 | 35 | |
| 20260504000214 | 82 | 157 | 0.0 | 2.0 | 0.00 | 0.00 | 0.00 | 36 | |
| 20260503235712 | 80 | 125 | 0.0 | 1.0 | 0.00 | 0.00 | 0.00 | 35 | |
| 20260503235209 | 83 | 175 | 0.0 | 3.0 | 0.00 | 0.00 | 0.00 | 35 | |
| 20260503234706 | 84 | 178 | 0.0 | 2.0 | 0.00 | 0.00 | 0.00 | 34 | |
| 20260503234205 | 83 | 168 | 0.0 | 1.0 | 0.00 | 0.00 | 0.00 | 34 | |
| 20260503233701 | 83 | 247 | 1.0 | 3.0 | 0.00 | 0.00 | 0.00 | 35 | |
| 20260503233157 | 81 | 175 | 1.0 | 8.0 | 0.00 | 0.00 | 0.00 | 37 | |
| 20260503232654 | 82 | 167 | 0.0 | 1.0 | 0.00 | 0.00 | 0.00 | 37 | |
| 20260503232151 | 84 | 235 | 0.0 | 3.0 | 0.00 | 0.00 | 0.00 | 35 | |
| 20260503231649 | 83 | 200 | 1.0 | 5.0 | 0.00 | 0.00 | 0.00 | 37 | |
| 20260503231145 | 82 | 135 | 1.0 | 6.0 | 0.00 | 0.00 | 0.00 | 36 | |
| 20260503230642 | 81 | 6 | 2.0 | 3.0 | 0.00 | 0.00 | 0.00 | 37 | |
| 20260503230139 | 79 | 187 | 1.0 | 3.0 | 0.00 | 0.00 | 0.00 | 38 | |
| 20260503225637 | 79 | 7 | 2.0 | 7.0 | 0.00 | 0.00 | 0.00 | 39 | |
| 20260503225136 | 80 | 58 | 3.0 | 6.0 | 0.00 | 0.00 | 0.00 | 39 | |
| 20260503224634 | 80 | 112 | 2.0 | 3.0 | 0.00 | 0.00 | 0.00 | 38 | |
| 20260503224132 | 84 | 158 | 0.0 | 3.0 | 0.00 | 0.00 | 0.00 | 36 | |
| 20260503223630 | 81 | 177 | 0.0 | 1.0 | 0.00 | 0.00 | 0.00 | 38 | |
| 20260503223125 | 84 | 345 | 1.0 | 3.0 | 0.00 | 0.00 | 0.00 | 37 | |
| 20260503222623 | 84 | 216 | 0.0 | 2.0 | 0.00 | 0.00 | 0.00 | 37 | |
| 20260503222121 | 78 | 154 | 1.0 | 5.0 | 0.00 | 0.00 | 0.00 | 42 | |
| 20260503221619 | 79 | 101 | 1.0 | 3.0 | 0.00 | 0.00 | 0.00 | 40 | |
| 20260503221116 | 78 | 26 | 2.0 | 6.0 | 0.00 | 0.00 | 0.00 | 41 | |
| 20260503220613 | 78 | 60 | 1.0 | 8.0 | 0.00 | 0.00 | 0.00 | 41 | |
| 20260503220109 | 79 | 189 | 1.0 | 6.0 | 0.00 | 0.00 | 0.00 | 42 | |
| 20260503215606 | 81 | 243 | 1.0 | 2.0 | 0.00 | 0.00 | 0.00 | 40 | |
| 20260503215103 | 78 | 171 | 1.0 | 7.0 | 0.00 | 0.00 | 0.00 | 42 | |
| 20260503214601 | 78 | 358 | 2.0 | 5.0 | 0.00 | 0.00 | 0.00 | 42 | |
| 20260503214057 | 78 | 181 | 1.0 | 3.0 | 0.00 | 0.00 | 0.00 | 42 | |
| 20260503213551 | 77 | 27 | 2.0 | 5.0 | 0.00 | 0.00 | 0.00 | 43 | |
| 20260503213047 | 77 | 177 | 1.0 | 6.0 | 0.00 | 0.00 | 0.00 | 44 | |
| 20260503212545 | 77 | 22 | 3.0 | 5.0 | 0.00 | 0.00 | 0.00 | 43 | |
| 20260503212042 | 77 | 71 | 1.0 | 5.0 | 0.00 | 0.00 | 0.00 | 43 | |
| 20260503211539 | 76 | 193 | 3.0 | 3.0 | 0.00 | 0.00 | 0.00 | 43 | |
| 20260503211034 | 76 | 267 | 3.0 | 7.0 | 0.00 | 0.00 | 0.00 | 44 | |
| 20260503210532 | 75 | 286 | 2.0 | 3.0 | 0.00 | 0.00 | 0.00 | 45 | |
| 20260503210027 | 76 | 270 | 3.0 | 6.0 | 0.00 | 0.00 | 0.00 | 44 | |
| 20260503205524 | 76 | 181 | 2.0 | 8.0 | 0.00 | 0.00 | 0.00 | 45 | |
| 20260503205021 | 76 | 59 | 3.0 | 5.0 | 0.00 | 0.00 | 0.00 | 44 | |
| 20260503204518 | 77 | 23 | 1.0 | 5.0 | 0.00 | 0.00 | 0.00 | 45 | |
| 20260503204015 | 76 | 336 | 3.0 | 9.0 | 0.00 | 0.00 | 0.00 | 46 | |
| 20260503203512 | 76 | 13 | 4.0 | 5.0 | 0.00 | 0.00 | 0.00 | 44 | |
| 20260503203009 | 75 | 235 | 1.0 | 7.0 | 0.00 | 0.00 | 0.00 | 46 | |
| 20260503202507 | 76 | 331 | 1.0 | 6.0 | 0.00 | 0.00 | 0.00 | 46 | |
| 20260503202004 | 75 | 329 | 3.0 | 7.0 | 0.00 | 0.00 | 0.00 | 46 |